User: anonymous   Login
Location: Unspecified
(0.0000°N, 0.0000°E)
Time: 01:32:53
(UTC+01:00)
Language:

Cosmos 1898 Rocket - Orbit

View from above orbital plane
View from above orbital plane
View from above satellite
View from above satellite

Ground track
Ground track

The orbit data is extracted from the following two-line orbital elements,

1 18586U 87098B   14352.54063450  .00000438  00000-0  15765-3 0  1985
2 18586 074.0053 173.7864 0020021 085.1029 332.6130 14.36524949416449
Epoch (UTC): 18 December 2014 12:58:30
Eccentricity: 0.0020021
inclination: 74.0053°
perigee height: 755 km
apogee height: 784 km
right ascension of ascending node: 173.7864°
argument of perigee: 85.1029°
revolutions per day: 14.36524949
mean anomaly at epoch: 332.6130°
orbit number at epoch: 41644

The dashed part of the orbit path shows where the satellite is in the earth's shadow,  

DLR